Location: Trois-Rivi�res
(46.3500°N, 72.5500°W)
Time: 02:13:42
(UTC-04:00)

Daily predictions for brighter satellites

Satellite Brightness Start Highest point End
(mag) Time Altitude Azimuth Time Altitude Azimuth Time Altitude Azimuth
RESURS DK-1 4.5 00:10:34 26° NNW 00:10:34 26° NNW 00:12:55 10° NNE
Cosmos 2154 Rocket 4.2 00:14:05 61° NE 00:14:05 61° NE 00:19:23 10° NNE
COSMOS 2455 3.5 00:09:07 10° NW 00:13:48 48° WNW 00:13:48 48° WNW
CZ-2C R/B 3.4 00:41:08 10° N 00:45:37 48° NW 00:45:37 48° NW
Cosmos 2218 Rocket 4.5 00:54:18 52° ENE 00:54:18 52° ENE 00:59:52 10° NNE
Cosmos 1603 4.3 01:00:49 54° NNE 01:00:49 54° NNE 01:05:06 10° NNE
SL-16 R/B 3.5 01:07:34 31° WNW 01:08:07 31° NW 01:13:09 10° N
Cosmos 1943 Rocket 2.8 01:09:22 10° NNW 01:13:45 53° N 01:13:45 53° N
Lacrosse 5 3.9 01:12:53 10° NW 01:17:11 26° N 01:21:28 10° ENE
Cosmos 2341 Rocket 4.4 01:19:51 54° WNW 01:19:51 54° WNW 01:25:30 10° N
Mayak 1.0 01:29:34 10° N 01:31:27 22° NNW 01:31:27 22° NNW
Cosmos 2366 rocket 4.0 01:37:32 76° NNW 01:37:32 76° NNW 01:43:27 10° N
USA 229 DEB 4.2 01:30:37 10° NW 01:37:40 58° NE 01:41:13 31° ESE
USA 229 4.2 01:30:44 10° NW 01:37:46 58° NE 01:41:24 30° ESE
Cosmos 1727 Rocket 4.1 01:35:21 10° N 01:40:52 71° NNW 01:40:52 71° NNW
Cosmos 2369 Rocket 3.4 01:36:31 10° NW 01:39:49 32° WNW 01:39:49 32° WNW
Cosmos 1125 Rocket 4.3 01:41:47 10° NNW 01:46:34 47° NE 01:46:34 47° NE
USA 215 3.4 01:48:54 61° W 01:48:54 61° W 01:54:18 10° NW
ADEOS Rocket 3.9 01:45:01 10° NNE 01:49:45 34° E 01:49:45 34° E
GEOS 3 Rocket 4.2 01:56:28 50° NW 01:56:28 50° NW 02:00:22 10° NW
Cosmos 1943 3.6 01:57:30 57° NNW 01:57:30 57° NNW 02:02:35 10° NNE
Cosmos 841 Rocket 3.9 02:07:14 60° NNE 02:07:14 60° NNE 02:11:26 10° NNE
H-2A R/B 4.2 02:09:43 10° N 02:11:40 28° N 02:11:40 28° N
Cosmos 2058 4.5 02:13:22 10° N 02:15:43 33° N 02:15:43 33° N
BREEZE-M DEB (TANK) 3.9 02:02:17 10° WSW 02:19:56 61° E 02:22:27 10° E
Meteor 1-16 Rocket 4.4 02:29:04 63° WNW 02:29:04 63° WNW 02:34:37 10° N
USA 32 4.1 02:24:35 10° N 02:29:30 76° NNE 02:29:30 76° NNE
ARIANE 5 R/B 4.1 02:25:46 10° NE 02:30:10 27° E 02:31:18 25° ESE
Cosmos 2123 Rocket 4.1 02:24:27 10° N 02:30:43 69° E 02:31:57 55° SE
NPP 3.9 02:25:38 10° NNE 02:30:59 61° E 02:31:06 61° ESE
Cosmos 1821 Rocket 3.8 02:32:26 78° S 02:32:54 89° E 02:39:08 10° N
Cosmos 304 Rocket 4.3 02:33:56 54° NNW 02:33:56 54° NNW 02:37:52 10° NNE
Resurs 1-4 Rocket 3.1 02:33:51 10° NNE 02:38:44 37° E 02:39:37 35° ESE
Cosmos 1934 Rocket 3.8 02:39:33 69° SSE 02:40:15 79° E 02:46:21 10° N
Cosmos 372 Rocket 4.4 02:40:37 10° NNW 02:44:39 51° NW 02:44:39 51° NW
Cosmos 540 Rocket 3.4 02:48:49 74° NW 02:48:49 74° NW 02:53:45 10° NNE
IRS-P3 3.9 02:45:33 10° NNE 02:50:56 88° WNW 02:51:10 83° SSW
SL-16 R/B 2.5 02:51:01 44° SSE 02:53:10 80° ENE 02:59:23 10° NNW
Cosmos 2221 2.8 02:57:03 65° NNE 02:57:03 65° NNE 03:00:47 10° N
SL-08 R/B 3.6 02:57:29 55° NW 02:57:29 55° NW 03:01:27 10° NNW
Cosmos 1656 Rocket 4.5 02:52:40 10° NW 02:56:37 37° WNW 02:56:37 37° WNW
Cosmos 1943 Rocket 4.2 02:54:14 10° NW 02:55:14 13° WNW 02:55:14 13° WNW
Lacrosse 5 2.4 02:55:59 10° NW 03:01:01 58° NNE 03:06:01 10° ESE
Cosmos 1400 Rocket 3.9 02:57:17 10° NNW 02:59:52 39° NNW 02:59:52 39° NNW
Cosmos 1605 Rocket 4.0 03:00:25 51° S 03:02:09 81° E 03:08:35 10° N
IRS-1D 3.9 02:57:41 10° NNE 03:02:47 57° E 03:03:54 47° SE
CZ-2D R/B 2.4 02:57:47 10° NNE 03:03:06 59° E 03:04:15 48° SSE
COSMOS 2406 3.0 03:03:18 69° SSW 03:04:03 88° ESE 03:09:49 10° NNE
CBERS-1 3.9 03:04:39 10° N 03:09:45 69° WNW 03:10:06 66° W
Cosmos 1666 Rocket 3.8 03:05:28 10° N 03:09:55 67° E 03:10:28 59° ESE
Cosmos 1805 Rocket 3.6 03:06:46 10° NNW 03:10:48 70° NW 03:10:48 70° NW
Spot 4 Rocket 4.1 03:07:16 10° NNE 03:12:27 70° ESE 03:13:33 53° SSE
Cosmos 1300 3.6 03:14:14 40° ESE 03:14:28 41° E 03:18:06 10° NNE
Cosmos 1908 4.0 03:15:44 43° NNW 03:15:44 43° NNW 03:18:36 10° N
Cosmos 1697 Rocket 4.4 03:14:43 10° NNW 03:19:48 32° NE 03:24:51 10° ESE
ADEOS II 4.5 03:18:14 10° NE 03:21:43 18° E 03:25:11 10° SE
Helios 1A Rocket 4.1 03:18:19 10° N 03:21:28 32° NW 03:21:28 32° NW
Cosmos 783 Rocket 4.5 03:22:12 59° WSW 03:22:59 68° WNW 03:28:14 10° NNE
USA 229 DEB 4.2 03:21:56 10° NW 03:28:26 39° WSW 03:28:31 39° WSW
USA 229 4.2 03:22:02 10° NW 03:28:33 39° WSW 03:28:41 39° WSW
ADEOS 3.7 03:23:28 10° NNE 03:28:43 72° ESE 03:30:32 41° S
Cosmos 1153 Rocket 4.5 03:27:24 38° S 03:30:04 89° E 03:36:24 10° N
NOSS 3-1 (A) 4.0 03:26:13 10° NW 03:33:46 84° SW 03:42:11 10° SSE
Cosmos 2098 Rocket 4.2 03:33:48 34° W 03:33:55 34° WNW 03:38:05 10° N
ERS-1 4.4 03:30:24 10° N 03:35:22 73° WNW 03:36:31 52° SW
ADEOS Rocket 3.5 03:30:36 10° N 03:35:34 36° WNW 03:36:42 33° W
Sich 1 2.9 03:32:11 10° NNW 03:36:32 64° W 03:36:43 64° WSW
Cosmos 1447 Rocket 4.4 03:32:07 10° NNW 03:38:16 69° W 03:41:06 34° SSW
Cosmos 1726 2.2 03:41:11 63° WNW 03:41:11 63° WNW 03:44:45 10° N
Cosmos 2100 Rocket 4.2 03:38:31 23° S 03:42:37 72° E 03:48:58 10° NNE
Cosmos 2082 Rocket 3.5 03:40:18 16° SSE 03:44:08 34° ESE 03:49:10 10° NE
USA 161 4.1 03:45:05 13° ENE 03:45:05 13° ENE 03:45:50 10° NE
Cosmos 1802 Rocket 4.4 03:40:30 17° SSE 03:45:19 60° E 03:51:32 10° NNE
Okean O Rocket 4.3 03:44:48 10° NE 03:47:25 15° E 03:50:02 10° SE
Cosmos 1538 Rocket 4.0 03:52:04 38° SSW 03:54:13 80° WNW 03:59:37 10° NNE
Cosmos 2285 Rocket 4.4 03:55:05 32° WSW 03:57:46 50° WNW 04:04:00 10° NNE
Cosmos 1656 3.8 03:53:43 10° NNW 03:59:28 81° ENE 04:05:10 10° SSE
Meteor 2-10 4.1 03:57:12 29° SSW 04:00:17 82° WNW 04:05:55 10° N
NOSS 3-1 (C) 4.2 03:53:49 10° NW 04:01:05 50° WSW 04:09:02 10° S
Cosmos 292 Rocket 4.4 04:01:03 33° W 04:02:24 41° WNW 04:06:58 10° N
Cosmos 2173 Rocket 4.0 03:58:05 21° S 04:02:31 89° W 04:08:57 10° N
Cosmos 1470 Rocket 3.4 03:58:21 10° N 04:02:41 81° W 04:05:24 22° S
Cosmos 923 Rocket 4.5 03:59:35 21° S 04:03:01 58° ESE 04:08:11 10° NNE
MOS 1 Rocket 3.6 04:01:51 10° N 04:06:00 43° WNW 04:07:15 34° WSW
ARIANE 5 R/B 3.0 04:04:28 10° N 04:09:27 45° WNW 04:11:38 29° WSW
Cosmos 1315 Rocket 4.1 04:06:10 10° NW 04:08:58 25° WNW 04:08:58 25° WNW
BREEZE M DEB (TANK) 3.5 04:09:47 32° SW 04:10:44 35° SSW 04:19:42 10° SE
Cosmos 1633 Rocket 3.7 04:06:57 10° NNW 04:10:54 34° W 04:11:28 33° WSW
Cosmos 1892 2.7 04:08:03 10° N 04:11:55 80° E 04:15:36 11° SSE
Shenzhou-11 Module 3.0 04:12:25 33° SSE 04:12:25 33° SSE 04:15:11 10° ESE
Meteor 2-3 Rocket 3.8 04:06:43 10° N 04:12:24 84° ENE 04:18:07 10° SSE
Cosmos 1515 Rocket 3.5 04:11:06 26° SSW 04:13:31 82° W 04:17:59 10° N
Cosmos 2369 3.6 04:08:05 10° NNW 04:13:41 63° WSW 04:19:15 10° SSE
Tiangong 2 2.3 04:13:48 29° SSE 04:13:56 29° SSE 04:16:47 10° ESE
In-Cosmos 22 Rocket 4.2 04:08:55 10° NNW 04:14:10 55° W 04:18:01 18° SSW
Resurs 1-4 Rocket 3.0 04:13:50 10° N 04:18:30 33° WNW 04:20:41 24° WSW
Cosmos 1680 Rocket 3.9 04:16:05 15° S 04:20:26 64° ESE 04:25:43 10° NNE
Cosmos 1459 Rocket 3.9 04:16:15 21° SSW 04:20:29 65° W 04:26:31 10° N
SL-27 R/B 4.1 04:23:01 19° WNW 04:23:30 20° WNW 04:26:08 10° N
UNKNOWN OBJECT B 3.4 04:22:09 10° N 04:26:02 43° WNW 04:27:47 27° SW
Cosmos 2228 Rocket 3.4 04:25:04 26° SW 04:27:18 49° WNW 04:31:38 10° N
Cosmos 2112 Rocket 4.4 04:23:28 12° S 04:28:21 65° ESE 04:33:39 10° NNE
Cosmos 1833 Rocket 2.8 04:29:39 15° SSW 04:34:23 81° ESE 04:40:04 10° NNE
Cosmos 1328 Rocket 4.3 04:33:22 23° WSW 04:35:20 35° WNW 04:39:22 10° N
SL-16 R/B 3.8 04:36:07 17° WSW 04:37:28 18° W 04:41:39 10° NW
Cosmos 192 4.3 04:35:35 16° SSW 04:39:31 80° WNW 04:44:32 10° NNE
PSLV R/B 4.2 04:36:15 10° NNE 04:40:32 56° E 04:44:45 10° S
Meteor 1-27 4.2 04:37:14 12° SSW 04:42:31 69° WNW 04:48:06 10° N
CZ-2D R/B 3.5 04:38:40 10° N 04:42:45 23° WNW 04:45:34 15° W
Cosmos 2056 Rocket 4.1 04:38:24 10° NNW 04:43:45 63° ENE 04:49:07 10° SSE
Lacrosse 5 2.5 04:39:16 10° WNW 04:43:47 33° SW 04:48:16 10° S
Cosmos 1980 Rocket 2.3 04:44:26 10° NNW 04:50:05 85° ENE 04:55:43 10° SSE
Cosmos 1151 Rocket 3.7 04:54:35 15° SW 04:57:42 35° WNW 05:01:39 10° N
Cosmos 2233 Rocket 4.1 04:52:37 10° S 04:58:44 80° E 05:04:53 10° N
COSMOS 2487 3.1 04:56:41 16° SW 04:59:11 40° WNW 05:02:35 10° N
ADEOS II 2.1 04:56:42 10° N 05:01:57 68° WNW 05:07:09 10° SSW
Cosmos 1697 Rocket 2.9 04:58:33 10° NW 05:03:57 47° WSW 05:09:20 10° S
CZ-4B R/B 3.1 05:00:22 10° N 05:04:52 76° WNW 05:09:23 10° SSW
Cosmos 1455 2.6 05:01:55 10° SSW 05:05:25 41° WNW 05:09:01 10° N
Cosmos 2016 Rocket 4.4 05:00:10 10° SW 05:05:54 42° WNW 05:11:42 10° N
Cosmos 1707 Rocket 3.5 05:13:34 10° SSW 05:17:58 80° W 05:22:22 10° N
ATLAS 2AS CENTAUR R/B 3.0 05:10:21 10° NW 05:18:26 83° SW 05:25:55 10° SSE
MTI 4.2 05:18:06 10° SSE 05:21:18 69° ENE 05:24:31 10° N
EO 1 Del DPAF 3.8 05:17:40 10° SSE 05:21:28 66° ENE 05:25:18 10° N
Cosmos 1725 Rocket 4.4 05:15:41 10° SSW 05:21:34 45° WNW 05:27:30 10° N
CZ-4B DEB 4.2 05:16:39 10° NNE 05:22:13 80° WNW 05:27:42 10° SSW
Meteor PRIRODA 3.9 05:18:36 10° NNE 05:22:16 75° E 05:25:55 10° S
Okean O Rocket 1.7 05:19:49 10° N 05:24:11 59° WNW 05:28:29 10° SSW
Cosmos 1733 Rocket 3.8 05:22:22 10° N 05:26:48 59° ENE 05:31:11 10° SSE
Okean-O 4.1 05:23:41 10° NNE 05:27:54 40° E 05:32:04 10° S
Cosmos 2082 Rocket 2.8 05:22:49 10° SW 05:28:07 41° NW 05:33:28 10° NNE
Meteor 2-10 Rocket 4.5 05:25:58 10° S 05:31:39 60° E 05:37:23 10° NNE
